Change the Weather History Date:

Tuesday, March 19, 2013

  Actual Average Record
Temperature  
Mean Temperature 35 °F -  
Max Temperature 51 °F 49 °F 75 °F (1976)
Min Temperature 19 °F 29 °F 1 °F (1965)
Degree Days  
Heating Degree Days 30    
Moisture  
Dew Point 16 °F    
Average Humidity 54    
Maximum Humidity 80    
Minimum Humidity 25    
Precipitation  
Precipitation 0.00 in - - ()
Sea Level Pressure  
Sea Level Pressure 30.15 in    
Wind  
Wind Speed 7 mph (NNW)    
Max Wind Speed 24 mph    
Max Gust Speed 32 mph    
Visibility 10 miles    
Events      
Averages and records for this station are not official NWS values.
T = Trace of Precipitation, MM = Missing Value Source: NWS Daily Summary

Daily Weather History Graph

Daily Weather History Graph

Search for Another Location

Airport or City:

Trip Planner

Search our weather history database for the weather conditions in past years. The results will help you decide how hot, cold, wet, or windy it might be!

Date:

Astronomy

Mar. 19, 2013 Rise Set
Actual Time 7:33 AM CDT 7:40 PM CDT
Civil Twilight 7:06 AM CDT 8:08 PM CDT
Nautical Twilight 6:34 AM CDT 8:40 PM CDT
Astronomical Twilight 6:01 AM CDT 9:13 PM CDT
Moon 12:21 PM CDT (3/19) 2:32 AM CDT (3/19)
Length of Visible Light 13h 02m
Length of Day
12h 06m
Waxing Crescent, 50% of the Moon is Illuminated
Mar 19
Waxing Crescent
Mar 19
First Quarter
Mar 27
Full
Apr 2
Last Quarter
Apr 10
New

Hourly Weather History & Observations

Time (CDT) Temp. Windchill Dew Point Humidity Pressure Visibility Wind Dir Wind Speed Gust Speed Precip Events Conditions
12:15 AM 28.4 °F 24.6 °F 12.2 °F 51% 30.06 in 10.0 mi WSW 3.5 mph - N/A   Clear
12:35 AM 26.6 °F 21.2 °F 12.2 °F 55% 30.06 in 10.0 mi WNW 4.6 mph - N/A   Clear
12:55 AM 26.6 °F 21.2 °F 15.8 °F 64% 30.06 in 10.0 mi NW 4.6 mph - N/A   Clear
1:15 AM 26.6 °F 22.6 °F 15.8 °F 64% 30.06 in 10.0 mi WNW 3.5 mph - N/A   Clear
1:35 AM 26.6 °F 22.6 °F 15.8 °F 64% 30.07 in 10.0 mi West 3.5 mph - N/A   Clear
1:55 AM 26.6 °F 22.6 °F 15.8 °F 64% 30.06 in 10.0 mi West 3.5 mph - N/A   Partly Cloudy
2:15 AM 26.6 °F 21.2 °F 14.0 °F 59% 30.07 in 10.0 mi West 4.6 mph - N/A   Clear
2:55 AM 26.6 °F 21.2 °F 15.8 °F 64% 30.08 in 10.0 mi West 4.6 mph - N/A   Clear
3:15 AM 24.8 °F 19.1 °F 14.0 °F 64% 30.08 in 10.0 mi West 4.6 mph - N/A   Clear
3:35 AM 24.8 °F - 12.2 °F 59% 30.08 in 10.0 mi Calm Calm - N/A   Clear
3:55 AM 21.2 °F - 14.0 °F 74% 30.07 in 10.0 mi Calm Calm - N/A   Clear
4:15 AM 21.2 °F - 12.2 °F 68% 30.06 in 10.0 mi Calm Calm - N/A   Clear
4:35 AM 19.4 °F 14.3 °F 12.2 °F 74% 30.05 in 10.0 mi NNE 3.5 mph - N/A   Clear
4:55 AM 21.2 °F - 15.8 °F 80% 30.07 in 10.0 mi Calm Calm - N/A   Clear
5:15 AM 19.4 °F - 12.2 °F 74% 30.08 in 10.0 mi Calm Calm - N/A   Clear
5:35 AM 19.4 °F - 12.2 °F 74% 30.08 in 10.0 mi Calm Calm - N/A   Clear
5:55 AM 19.4 °F - 12.2 °F 74% 30.08 in 10.0 mi Calm Calm - N/A   Clear
6:15 AM 21.2 °F - 14.0 °F 74% 30.09 in 10.0 mi Calm Calm - N/A   Clear
6:35 AM 21.2 °F 13.6 °F 15.8 °F 80% 30.08 in 10.0 mi East 5.8 mph - N/A   Clear
6:55 AM 19.4 °F 12.8 °F 14.0 °F 80% 30.09 in 10.0 mi East 4.6 mph - N/A   Clear
7:15 AM 21.2 °F 14.9 °F 14.0 °F 74% 30.10 in 10.0 mi East 4.6 mph - N/A   Clear
7:35 AM 21.2 °F 14.9 °F 14.0 °F 74% 30.11 in 10.0 mi East 4.6 mph - N/A   Clear
7:55 AM 21.2 °F 13.6 °F 14.0 °F 74% 30.11 in 10.0 mi East 5.8 mph - N/A   Clear
8:15 AM 21.2 °F 13.6 °F 15.8 °F 80% 30.11 in 10.0 mi East 5.8 mph - N/A   Clear
8:35 AM 21.2 °F 14.9 °F 15.8 °F 80% 30.12 in 10.0 mi ESE 4.6 mph - N/A   Clear
8:55 AM 23.0 °F 18.4 °F 15.8 °F 74% 30.13 in 10.0 mi East 3.5 mph - N/A   Clear
9:15 AM 24.8 °F 20.5 °F 17.6 °F 74% 30.15 in 10.0 mi ESE 3.5 mph - N/A   Clear
9:35 AM 24.8 °F 20.5 °F 17.6 °F 74% 30.15 in 10.0 mi SE 3.5 mph - N/A   Clear
9:55 AM 26.6 °F 22.6 °F 17.6 °F 69% 30.16 in 10.0 mi ESE 3.5 mph - N/A   Clear
10:15 AM 28.4 °F 23.3 °F 17.6 °F 64% 30.16 in 10.0 mi SE 4.6 mph - N/A   Clear
10:35 AM 28.4 °F 23.3 °F 19.4 °F 69% 30.16 in 10.0 mi South 4.6 mph - N/A   Clear
10:55 AM 30.2 °F 25.4 °F 19.4 °F 64% 30.16 in 10.0 mi SSE 4.6 mph - N/A   Clear
11:15 AM 33.8 °F 29.6 °F 19.4 °F 56% 30.16 in 10.0 mi SSE 4.6 mph - N/A   Clear
11:35 AM 37.4 °F 31.4 °F 19.4 °F 48% 30.15 in 10.0 mi South 8.1 mph - N/A   Clear
11:55 AM 37.4 °F 31.4 °F 17.6 °F 45% 30.15 in 10.0 mi SSW 8.1 mph - N/A   Clear
12:15 PM 39.2 °F 32.0 °F 19.4 °F 45% 30.16 in 10.0 mi SSW 11.5 mph - N/A   Clear
12:35 PM 42.8 °F 36.6 °F 21.2 °F 42% 30.15 in 10.0 mi SSW 11.5 mph 17.3 mph N/A   Clear
12:55 PM 44.6 °F 40.2 °F 24.8 °F 46% 30.14 in 10.0 mi SSW 8.1 mph 18.4 mph N/A   Clear
1:15 PM 46.4 °F 41.1 °F 24.8 °F 43% 30.14 in 10.0 mi West 11.5 mph 17.3 mph N/A   Clear
1:35 PM 48.2 °F - 24.8 °F 40% 30.13 in 10.0 mi WSW 8.1 mph - N/A   Clear
1:55 PM 50.0 °F - 24.8 °F 37% 30.12 in 10.0 mi West 5.8 mph - N/A   Scattered Clouds
2:15 PM 51.8 °F - 21.2 °F 30% 30.11 in 10.0 mi NW 24.2 mph - N/A   Scattered Clouds
2:35 PM 51.8 °F - 19.4 °F 28% 30.12 in 10.0 mi NNW 24.2 mph 28.8 mph N/A   Mostly Cloudy
2:55 PM 51.8 °F - 19.4 °F 28% 30.11 in 10.0 mi NNW 23.0 mph 28.8 mph N/A   Mostly Cloudy
3:15 PM 50.0 °F - 17.6 °F 28% 30.11 in 10.0 mi NNW 15.0 mph 28.8 mph N/A   Mostly Cloudy
3:35 PM 51.8 °F - 19.4 °F 28% 30.11 in 10.0 mi NW 20.7 mph 26.5 mph N/A   Scattered Clouds
3:55 PM 50.0 °F - 17.6 °F 28% 30.12 in 10.0 mi NW 17.3 mph 32.2 mph N/A   Partly Cloudy
4:15 PM 50.0 °F - 17.6 °F 28% 30.13 in 10.0 mi NNW 18.4 mph 27.6 mph N/A   Clear
4:35 PM 50.0 °F - 17.6 °F 28% 30.13 in 10.0 mi NNW 17.3 mph - N/A   Partly Cloudy
4:55 PM 50.0 °F - 17.6 °F 28% 30.14 in 10.0 mi NNW 18.4 mph 26.5 mph N/A   Partly Cloudy
5:15 PM 48.2 °F - 17.6 °F 30% 30.14 in 10.0 mi NNW 18.4 mph 26.5 mph N/A   Scattered Clouds
5:35 PM 48.2 °F - 15.8 °F 27% 30.14 in 10.0 mi NW 24.2 mph 29.9 mph N/A   Scattered Clouds
5:55 PM 48.2 °F - 15.8 °F 27% 30.15 in 10.0 mi NNW 19.6 mph 25.3 mph N/A   Clear
6:15 PM 46.4 °F 39.8 °F 12.2 °F 25% 30.16 in 10.0 mi NW 16.1 mph 28.8 mph N/A   Clear
6:35 PM 46.4 °F 38.3 °F 12.2 °F 25% 30.17 in 10.0 mi NNW 23.0 mph 26.5 mph N/A   Clear
6:55 PM 44.6 °F 37.8 °F 14.0 °F 29% 30.18 in 10.0 mi NNW 15.0 mph 27.6 mph N/A   Clear
7:15 PM 42.8 °F 34.8 °F 14.0 °F 31% 30.19 in 10.0 mi NNW 17.3 mph 21.9 mph N/A   Clear
7:35 PM 41.0 °F 33.1 °F 12.2 °F 31% 30.20 in 10.0 mi NNW 15.0 mph - N/A   Clear
7:55 PM 39.2 °F 31.6 °F 12.2 °F 33% 30.21 in 10.0 mi NNW 12.7 mph 20.7 mph N/A   Clear
8:15 PM 37.4 °F 29.8 °F 15.8 °F 41% 30.23 in 10.0 mi North 11.5 mph - N/A   Clear
8:35 PM 37.4 °F 28.9 °F 14.0 °F 38% 30.24 in 10.0 mi North 13.8 mph - N/A   Clear
8:55 PM 35.6 °F 27.5 °F 14.0 °F 41% 30.25 in 10.0 mi North 11.5 mph - N/A   Clear
9:15 PM 33.8 °F 23.2 °F 17.6 °F 52% 30.26 in 10.0 mi NNE 17.3 mph 20.7 mph N/A   Clear
9:35 PM 30.2 °F 19.3 °F 17.6 °F 60% 30.28 in 10.0 mi North 15.0 mph - N/A   Clear
9:55 PM 30.2 °F 18.5 °F 15.8 °F 55% 30.29 in 10.0 mi North 17.3 mph 23.0 mph N/A   Clear
10:15 PM 28.4 °F 15.1 °F 17.6 °F 64% 30.30 in 10.0 mi North 20.7 mph 24.2 mph N/A   Clear
10:35 PM 26.6 °F 15.2 °F 15.8 °F 64% 30.32 in 10.0 mi North 13.8 mph - N/A   Clear
10:55 PM 24.8 °F 14.0 °F 15.8 °F 69% 30.34 in 10.0 mi North 11.5 mph 17.3 mph N/A   Clear
11:15 PM 24.8 °F 14.0 °F 14.0 °F 64% 30.35 in 10.0 mi North 11.5 mph - N/A   Clear
11:35 PM 23.0 °F 9.6 °F 12.2 °F 63% 30.35 in 10.0 mi North 16.1 mph - N/A   Clear
11:55 PM 23.0 °F 10.6 °F 12.2 °F 63% 30.36 in 10.0 mi North 13.8 mph 21.9 mph N/A   Clear